カタログに戻る

FENGYUN 1C DEB

運用中PO
NORAD 30265·DEBRIS·🇨🇳 China

打ち上げ May 10, 1999 から Taiyuan Satellite Launch Center

Loading…

次のパス (今後24時間)

TLE

最新Source: Space-Track

元期: Sep 12, 2026, 08:13 UTC

1 30265U 99025YA  26255.34287568  .00006087  00000-0  11584-2 0  9996
2 30265  98.6770  22.6746 0025676 245.9447 139.5397 14.64278517 24001

AllMySatでFENGYUN 1C DEBをリアルタイム追跡

Download on the App Store